Regional Weather Roundup
Issued by NWS San Diego, CA

Home | Current Version | Previous Version | Text Only | Print | Product List | Glossary On
Versions: 1 2 3 4 5 6 7 8 9 10 11 12 13 14 15 16 17 18 19 20 21 22 23 24 25 26 27 28 29 30 31 32 33 34 35 36 37 38 39 40 41 42 43 44 45 46 47 48 49 50
000
ASUS46 KSGX 162310
RWRSGX

SAN DIEGO HOURLY WEATHER ROUNDUP
NATIONAL WEATHER SERVICE SAN DIEGO CA
400 PM PDT TUE SEP 16 2014

NOTE: "FAIR" INDICATES FEW OR NO CLOUDS BELOW 12,000 FEET WITH NO
SIGNIFICANT WEATHER AND/OR OBSTRUCTIONS TO VISIBILITY.

CAZ042-043-060-061-PZZ750-775-170000-

GREATER SAN DIEGO AREA

CITY           SKY/WX    TMP DP  RH WIND       PRES   REMARKS
LINDBERGH FLD  MOSUNNY   89  64  43 NW12      29.68F
POINT LOMA       N/A     81  70  68 NW30        N/A
NATIONAL CITY    N/A     92  66  42 W2        29.68S
CHULA VISTA      N/A     88  71  57 W2        29.61F
IMPERIAL BEACH MOSUNNY   81  72  74 W9        29.69F
BROWN FIELD    SUNNY     90  66  45 W8        29.70S
MIRAMAR MCAS   MOSUNNY   97  59  28 NW14      29.69F HX  96
MONTGOMERY FLD MOSUNNY   99  60  27 NW14      29.69F HX  99

$$

NORTH SAN DIEGO COUNTY

CITY           SKY/WX    TMP DP  RH WIND       PRES   REMARKS
CAMP PENDLETON PTSUNNY  101  59  24 NE10      29.69R HX 101
OCEANSIDE AP   PTSUNNY   88  65  46 W6        29.69S
OCEANSIDE HBR    N/A     80  70  71 NW7       29.73R
VISTA            N/A     92  66  41 W3        29.68S HX  95
CARLSBAD       MOSUNNY   87  65  47 NW8       29.71S
DEL MAR          N/A     85  73  66 CALM      29.72S
LA JOLLA SCRIP   N/A     79  73  81 W6        29.67S
FALLBROOK        N/A     90  62  39 NW6       29.70R
ESCONDIDO        N/A     98  64  32 W13       29.69S HX 100
SAN MARCOS       N/A     96  67  37 NW9       29.67F HX 100
POWAY            N/A    105  66  27 W3        29.66F HX 110

$$

EAST SAN DIEGO COUNTY

CITY           SKY/WX    TMP DP  RH WIND       PRES   REMARKS
RAMONA         MOSUNNY  100  63  29 NE14      29.76F HX 102
SANTEE LAKES     N/A    103  68  32 CALM      29.66F HX 108
LA MESA          N/A    103  70  34 CALM      29.60F HX 112
JAMUL            N/A    101  68  34 SE12      29.66F HX 106
DESCANSO N       N/A     87  63  44 E10       29.59F
MT. LAGUNA OBS   N/A     70  58  65 NE10      29.68F
CAMPO            N/A     89  61  38 E14       29.82F

$$

ORANGE COUNTY AND THE LOS ANGELES BASIN

CITY           SKY/WX    TMP DP  RH WIND       PRES   REMARKS
JOHN WAYNE AP  MOSUNNY   98  56  24 SW6       29.70R HX  96
LAGUNA BEACH     N/A     90  67  46 S1        29.68R
LAKE FOREST FR   N/A     96  47  18 E21       29.60R
SANTA ANA        N/A    102  66  31 S3        29.65R HX 106
HUNTINGTON BCH   N/A     91  67  45 NW5       29.72R HX  95
LOS ALAMITOS   MOSUNNY   96  58  27 W8        29.70R HX  95
FULLERTON      SUNNY     99  55  23 W8        29.69R HX  97
LONG BEACH     SUNNY     92  57  30 W10       29.70R
L.A. AP        MOSUNNY   83  59  44 W12       29.70F
L.A. DOWNTOWN  SUNNY     94  55  26 VRB5      29.68F

$$

THE INLAND EMPIRE

CITY           SKY/WX    TMP DP  RH WIND       PRES   REMARKS
CORONA         MOSUNNY  103  60  24 VRB7      29.71F HX 103
CHINO          PTSUNNY  101  60  25 S10       29.73R HX 101
ONTARIO        PTSUNNY   97  62  31 S15G26    29.75R BLWGDUSTHX  98
SAN BERNARDINO PTSUNNY   95  59  30 SE15      29.74S
RIVERSIDE AP   PTSUNNY   90  64  42 S15       29.74R
RIV CYN CREST    N/A     89  68  49 S15       29.71R
MORENO VALLEY    N/A     87  61  41 S7        29.01R
MARCH ARB      PTSUNNY   86  55  35 S12G23    29.79F
HORSETHIEF CYN   N/A     76  57  50 SW17      29.73R
PERRIS           N/A     83  60  44 S9        29.75R
MENIFEE          N/A     78  65  63 W6        29.81F
HEMET EAST       N/A     88  63  42 CALM      29.70S
FRENCH VALLEY  MOCLDY    82  63  51 W9        29.77F
TEMECULA         N/A     87  62  42 N1        29.73R

$$

SAN BERNARDINO AND RIVERSIDE COUNTY MOUNTAINS

CITY           SKY/WX    TMP DP  RH WIND       PRES   REMARKS
BIG BEAR AP    PTSUNNY   72  52  49 S6        30.19F
ANGELUS OAKS     N/A     70  63  78 CALM      29.65F
PINE COVE        N/A     72  58  60 CALM      29.64F

$$

SOUTHERN DESERT INCLUDING THE COACHELLA VALLEY

CITY           SKY/WX    TMP DP  RH WIND       PRES   REMARKS
PALM SPRINGS   PTSUNNY  102  66  30 SE9       29.73F HX 106
THOUSAND PALMS   N/A    100  67  33 S6        29.69F HX 104
PALM DESERT      N/A    103  69  33 CALM      31.24S HX 110
THERMAL        MOSUNNY  102  67  31 SE12      29.68F HX 107
BLYTHE         SUNNY    101  64  29 SE8       29.73F HX 104
IMPERIAL AP    SUNNY    101  66  31 SE18G25   29.69F HX 105
EL CENTRO NAS  MOSUNNY  100  65  31 SE16      29.69F HX 103
YUMA AZ        CLOUDY    95  61  32 E12       29.74F HX  95
MEXICALI       PTSUNNY   95  63  34 SE8       29.73  HX  96

$$

UPPER DESERT

CITY           SKY/WX    TMP DP  RH WIND       PRES   REMARKS
VICTORVILLE AP RAIN      84  59  42 SE29G36   29.88R
HESPERIA         N/A     95  56  26 W5        29.78F
APPLE VALLEY     N/A     97  52  22 SE1       29.93F
PALMDALE       CLOUDY    99  47  17 VRB3      29.83F HX  95
LANCASTER      SUNNY     99  47  17 SW8       29.81F HX  95
EDWARDS AFB    MOSUNNY  100  45  15 VRB1      29.80F HX  96
DAGGETT        MOSUNNY  101  57  23 E17G26    29.78F HX 100
29 PALMS N     PTSUNNY   94  62  34 SE10      29.89F THUNDER
NEEDLES        MOSUNNY  102  62  26 MISG      29.74F HX 104

$$

REGIONAL REPORTS

CITY           SKY/WX    TMP DP  RH WIND       PRES   REMARKS
SANTA BARBARA  SUNNY     82  65  56 SE8       29.68F
SANDBERG       MOSUNNY   87  45  23 NW21G31   30.03F
MT. WILSON       N/A     88  52  29 MISG        N/A
LAS VEGAS NV   MOSUNNY   98  56  24 S9        29.77F HX  96
PHOENIX AZ     LGT RAIN  82  69  64 NE15      29.84F
TIJUANA        MOSUNNY   91  61  35 W16       29.71F
ENSENADA NW      N/A     89  32  13 S2        29.65S

$$

OFFSHORE ISLANDS

CITY           SKY/WX    TMP DP  RH WIND       PRES   REMARKS
CATALINA ARPT  SUNNY     89  52  28 W9        29.81S
SAN NICOLAS IS MOSUNNY   87  45  23 NW28G37   29.74F

$$

MARINE AND OFFSHORE BUOY REPORTS

STATION/POSITION SKY/WX   TEMP    WIND        PRES    SWELL
                          AIR SEA DIR/SP/G            HT/PER/DIR
                          (F)     (DEG/KT/KT) (MB)    (FT/S/D)
TANNER BANKS               69 70  320/ 17/ 21 1007.0F
S CLEMENTE BASIN           74 75  300/ 14/ 17 1005.0F   5/240/19
SAN NICOLAS IS.               67                N/A     5/190/20
SO. S. ROSA ISLA           67 68  310/ 19/ 23 1006.6F   3/19
W. S. BARBARA CH           63 65  310/ 25/ 29 1006.5F   3/240/19
S. MONICA BASIN            76 76  260/  8/ 10 1005.3F   3/220/19
S PEDRO CHANNEL               74                N/A     2/220/20
DANA POINT                    73                N/A     3/200/20
OCEANSIDE OFFSHR              75                N/A     3/210/20
TORREY PINES OTR                                N/A     3/210/20
LA JOLLA 1                 77 69   20/  6/  7 1005.6S
MISSION BAY BUOY              75                N/A     3/220/20
SAN DIEGO BAY                 78              1005.4R

$$




USA.gov is the U.S. government's official web portal to all federal, state and local government web resources and services.